ATLAS 5 CENTAUR DEB, 52828

Orbit data source: Space-Track

ATLAS 5 CENTAUR DEB, 52828 is space debris in HEO originally from a launch on Wed, 17 Sep 2014 UTC launched from the Air Force Eastern Test Range (AFETR). Debris objects in space refer to the collection of defunct objects orbiting the Earth. Examples of debris include non-operational satellites, rocket bodies, and fragments generated from explosions, collisions, or faulty payload assembly.

Loading next visibility...
Identifier
52828, 2014-055DL
Orbit
HEO
Country
Flag of USUS
Related business
Flag of USUnited Launch Alliance/Lockheed Martin (US)
Manufacturer
Unknown
Mission
Spacecraft
Bus & Motor
Unknown
Mass
Unknown
Launch date (UTC)
2014-09-17 (12 years ago)
Launch vehicle
Unknown
Launch site
Air Force Eastern Test Range (AFETR)
Object type
Payload
Rocket body
Debris
Shape & HBR
Unknown shape, 1.1 m
Radar Cross Section
RCS unknown

Expand to show TLE details & history
Last TLE update: 2 days ago

TLE from 2 days ago
0 ATLAS 5 CENTAUR DEB
1 52828U 14055DL  26117.84264758 -.00000008  00000-0  00000+0 0  9999
2 52828  19.3495 175.0106 4703019 110.1472 305.2721  1.81207885 26152
Epoch: 2026-04-27T20:13Z
TLE epoch observation values (Epoch: 2026-04-27T20:13:24.750Z)
Latitude
-0.00002°
Longitude
15.91526°
Altitude
20,013.879 km
Speed
4.023 km/s
True Right ascension
11h 40m 22s
True Declination
0° 00' 00"
Sunlit
Object was in daylight at epoch
Visualization orbit readout
Latitude
Unknown
Longitude
Unknown
Altitude
Unknown
Speed
Unknown
Apparent Right ascension
Unknown
Apparent Declination
Unknown
Sunlit
N/A
Visualization observer readout
Local Sidereal Time
09:31:36
Azimuth
Unknown
Elevation
Unknown
Doppler factor
Unknown
Orbital elements
Apogee altitude
35,409.968 km
Perigee altitude
8,676.649 km
Semi-major axis
28,421.446 km
Eccentricity
0.4703
Inclination
19.3495°
RAAN
175.0106°
Arg. of periapsis
110.1472°
True anomaly
249.84566°
Mean anomaly
305.2721°
Eccentric anomaly
278.63094°
Mean motion
0.45297 °/min
Orbital period
794.75 mins
BSTAR
0
Loading maneuver chart data...
Computing Atmospheric mass density...

Documentation

Showing up to 5 results
|